Weather History for Al Udeid, Qatar

Change the Weather History Date:

Thursday, February 27, 2014

  Actual Average Record
Temperature  
Mean Temperature 72 °F -  
Max Temperature 85 °F - - ()
Min Temperature 60 °F - - ()
Cooling Degree Days 8    
Growing Degree Days 22 (Base 50)    
Moisture  
Dew Point 53 °F    
Average Humidity 56    
Maximum Humidity 100    
Minimum Humidity 23    
Precipitation  
Precipitation 0.00 in - - ()
Sea Level Pressure  
Sea Level Pressure 30.01 in    
Wind  
Wind Speed 6 mph ()    
Max Wind Speed 10 mph    
Max Gust Speed -    
Visibility 6.1 miles    
Events      
T = Trace of Precipitation, MM = Missing Value Source: Averaged Metar Reports

Daily Weather History Graph

Daily Weather History Graph

Search for Another Location

Airport:

Trip Planner

Search our weather history database for the weather conditions in past years. The results will help you decide how hot, cold, wet, or windy it might be!

Date:

Astronomy

Feb. 27, 2014 Rise Set
Actual Time 5:59 AM AST 5:35 PM AST
Civil Twilight 5:36 AM AST 5:58 PM AST
Nautical Twilight 5:10 AM AST 6:25 PM AST
Astronomical Twilight 4:43 AM AST 6:51 PM AST
Moon 4:04 AM AST (2/27) 3:40 PM AST (2/27)
Length of Visible Light 12h 21m
Length of Day
11h 35m
Waning Crescent, 6% of the Moon is Illuminated
Feb 27
Waning Crescent
Mar 1
New
Mar 8
First Quarter
Mar 16
Full
Mar 24
Last Quarter

Hourly Weather History & Observations

Time (AST) Temp. Dew Point Humidity Pressure Visibility Wind Dir Wind Speed Gust Speed Precip Events Conditions
12:58 AM 65.5 °F 58.1 °F 77% 30.01 in 6.2 mi East 5.8 mph - N/A   Clear
1:58 AM 65.3 °F 58.3 °F 78% 30.00 in 6.2 mi ESE 5.8 mph - N/A   Clear
2:58 AM 62.2 °F 58.3 °F 87% 29.99 in 6.2 mi SSE 5.8 mph - N/A   Clear
3:58 AM 61.5 °F 57.6 °F 87% 29.99 in 5.6 mi ESE 3.5 mph - N/A   Clear
4:58 AM 61.3 °F 57.2 °F 86% 30.01 in 6.2 mi SSE 2.3 mph - N/A   Clear
5:58 AM 60.6 °F 59.4 °F 96% 30.02 in 6.2 mi SSE 4.6 mph - N/A   Clear
6:58 AM 61.3 °F 61.3 °F 100% 30.04 in 5.6 mi SE 5.8 mph - N/A   Clear
7:58 AM 66.7 °F 62.4 °F 86% 30.07 in 5.6 mi SSE 5.8 mph - N/A   Clear
8:58 AM 73.6 °F 59.5 °F 61% 30.08 in 6.2 mi SSE 6.9 mph - N/A   Clear
9:58 AM 78.3 °F 57.4 °F 49% 30.08 in 6.2 mi SE 5.8 mph - N/A   Clear
10:58 AM 85.6 °F 46.0 °F 25% 30.05 in 6.2 mi SE 10.4 mph - N/A   Clear
11:58 AM 85.5 °F 43.3 °F 23% 30.02 in 6.2 mi SE 10.4 mph - N/A   Partly Cloudy
12:58 PM 83.5 °F 47.7 °F 29% 30.02 in 6.2 mi ESE 6.9 mph - N/A   Partly Cloudy
1:58 PM 83.7 °F 48.0 °F 29% 29.99 in 6.2 mi Variable 6.9 mph - N/A   Clear
2:58 PM 83.7 °F 48.6 °F 29% 29.98 in 6.2 mi SE 6.9 mph - N/A   Clear
3:58 PM 82.4 °F 48.0 °F 30% 29.97 in 6.2 mi East 9.2 mph - N/A   Clear
4:58 PM 79.2 °F 47.5 °F 33% 29.98 in 6.2 mi ESE 10.4 mph - N/A   Clear
5:58 PM 75.9 °F 46.6 °F 35% 29.98 in 6.2 mi East 10.4 mph - N/A   Clear
6:58 PM 73.2 °F 48.4 °F 41% 29.99 in 6.2 mi East 8.1 mph - N/A   Clear
7:58 PM 71.8 °F 49.3 °F 45% 30.00 in 6.2 mi East 9.2 mph - N/A   Clear
8:58 PM 70.9 °F 49.3 °F 46% 29.99 in 6.2 mi ESE 9.2 mph - N/A   Clear
9:58 PM 69.1 °F 50.5 °F 52% 29.99 in 6.2 mi SE 6.9 mph - N/A   Clear
10:58 PM 68.7 °F 50.4 °F 52% 29.98 in 6.2 mi ESE 3.5 mph - N/A   Clear
11:58 PM 64.8 °F 50.0 °F 59% 29.96 in 6.2 mi SSE 4.6 mph - N/A   Clear